Find Starlink 32747

NORAD ID: 62600 Int'l Des: 2025-008 Owner: SPXS Country: US Constellation: starlink operational
LEOCIRCULAR

Live-Position

3D-Globus wird geladen...

Über Starlink 32747

Beschreibung wird geladen...

Nächste Überflüge

Passes for default location (London). Set your location on the main map for personalized predictions.

Höhenverlauf

Loading altitude history...

Zweizeiliger Elementsatz

1 62600U 25008P 26123.63422081 .00030264 00000-0 11042-2 0 9994
2 62600 43.0015 327.9559 0001620 281.1825 78.8844 15.27598823 73969
Epoch: 3. Mai 2026 • Age: 12 hours

Aktueller Status

Höhe 487.7 km
Geschwindigkeit 7.62 km/s
Subsatellitenpunkt -22.07°S, 98.28°W
Startdatum 13. Jan. 2025
Alter 1.3 years
Typ internet

Technische Details

Klassifizierung Payload
Masse 730.00 kg
Trockenmasse 700.00 kg
Gesamtmasse 730.00 kg
Länge 0.30 m
Durchmesser 4.10 m
Spannweite 29.00 m
Form Box + pan
Hersteller SPXS
Bus-Typ Starlink V2M
Phasenstatus In Orbit
Besitzer/Staat SPXS/US

Most Searched